Simultaneous Nadir Overpasses (SNOs) Predictions

Prediction of SNOs between TERRA and METOP-C Satellite Orbit:

Table of predicted SNOs for the next 14.0 days since TLE Epoch: 10/31/2020
Index Date (TERRA) Time (TERRA) Lat,Lon (TERRA) SZA (TERRA ) Date (METOP-C) Time (METOP-C) Lat,Lon (METOP-C) SZA (METOP-C ) Distance(km) Time Diff (sec)
1 11/02/2020 07:36:16 -81.27, -67.48 80.73 11/02/2020 07:35:48 -81.27, -67.58 80.76 1.71 28
2 11/02/2020 08:25:42 81.28, 100.25 99.30 11/02/2020 08:26:27 81.28, 100.18 99.31 1.11 45
3 11/05/2020 03:10:31 -81.28, -0.97 79.86 11/05/2020 03:10:12 -81.27, -1.03 79.88 1.08 19
4 11/05/2020 03:59:57 81.28, 166.73 100.16 11/05/2020 04:00:51 81.28, 166.75 100.19 0.37 54
5 11/07/2020 22:44:45 -81.28, 65.50 79.03 11/07/2020 22:44:35 -81.27, 65.50 79.04 0.38 10
6 11/07/2020 23:34:11 81.28,-126.83 100.99 11/07/2020 23:35:14 81.28,-126.69 101.03 2.29 63
7 11/10/2020 17:29:47 80.94, -40.83 100.94 11/10/2020 17:28:33 81.13, -41.24 101.00 22.52 74
8 11/10/2020 18:19:00 -81.28, 131.91 78.25 11/10/2020 18:18:59 -81.28, 132.00 78.24 1.52 1
9 11/10/2020 19:08:26 81.28, -60.43 101.76 11/10/2020 19:09:39 81.28, -60.55 101.78 2.00 73
10 11/13/2020 13:03:48 81.27, 30.61 102.47 11/13/2020 13:02:43 81.27, 30.66 102.44 0.87 65



Historial Predications of SNOs between TERRA and METOP-C
